{"data":{"norad_id":60144,"epoch":"2026-09-21T20:33:32.693760Z","epoch_age_seconds":64233,"freshness":"FRESH","line1":"1 60144U 24120K   26264.85662840  .00000073  00000+0  13313-4 0  9997","line2":"2 60144  53.1589 125.6742 0001230  97.0571 263.0572 15.34389626126450","mean_motion":15.34389626,"eccentricity":0.000123,"inclination_deg":53.1589,"raan_deg":125.6742,"arg_perigee_deg":97.0571,"mean_anomaly_deg":263.0572,"bstar":1.3313e-5,"rev_number":12645,"period_min":93.848392585522,"perigee_km":461.89264695294,"apogee_km":463.57550123716,"semimajor_km":6840.871074095,"source":"CELESTRAK","updated_at":"2026-09-22T09:00:49.178058Z"}}